World > North America > United States > Washington   City of Chelan, WA
Hourly Weather in Chelan, WashingtonChelan, Washington Hourly Weather

Chelan, WA Hourly Weather

Hourly Weather Chelan, WashingtonHourly Weather in Chelan, WA
Lat: 47.85N, Lon: 120.03W  ICAO: KEAT
Web Search
Chelan Weather Warning NWS WEATHER ALERT FOR THE CHELAN, WA AREA - DENSE FOG ADVISORY Issued: 415 AM PST Mon Jan 24 2022 Chelan Weather Warning  

Ads allow us to feed your daily addiction for the world's greatest weather information. We're determined to offer quality sponsors, in the least annoying way possible.

Feedback

Chelan Hourly Weather

36 Hour Weather Scroll   °F Click to change Chelan hourly weather to Imperial units.Click to change Chelan hourly weather to Metric units. °C
Currently, Overcast, temperature is 26°F-3°C, dew point 23°F-5°C, humidity 88%. Wind direction is ENE at 5 mph8 km/h with visibility of 10.00 mi16 km. Barometric pressure is 30.36 in1028 mb.

Jan 24
11:00 AM

Jan 24
NOON

Jan 24
1:00 PM

Jan 24
2:00 PM

Jan 24
3:00 PM

Jan 24
4:00 PM

Jan 24
5:00 PM

Jan 24
6:00 PM

Jan 24
7:00 PM

Jan 24
8:00 PM

Jan 24
9:00 PM

Jan 24
10:00 PM

Jan 24
11:00 PM

Jan 25
MIDNIGHT

Jan 25
1:00 AM

Jan 25
2:00 AM

Jan 25
3:00 AM

Jan 25
4:00 AM

Jan 25
5:00 AM

Jan 25
6:00 AM

Jan 25
7:00 AM

Jan 25
8:00 AM

Jan 25
9:00 AM

Jan 25
10:00 AM

Jan 25
11:00 AM

Jan 25
NOON

Jan 25
1:00 PM

Jan 25
2:00 PM

Jan 25
3:00 PM

Jan 25
4:00 PM

Jan 25
5:00 PM

Jan 25
6:00 PM

Jan 25
7:00 PM

Jan 25
8:00 PM

Jan 25
9:00 PM

Jan 25
10:00 PM
Cloudy Cloudy Cloudy Cloudy Partly Cloudy Partly Cloudy Partly Cloudy Mostly Clear Mostly Clear Mostly Clear Partly Cloudy Partly Cloudy Partly Cloudy Mostly Cloudy Mostly Cloudy Mostly Cloudy Partly Cloudy Partly Cloudy Partly Cloudy Mostly Cloudy Mostly Cloudy Mostly Cloudy Cloudy Cloudy Cloudy Cloudy Cloudy Cloudy Mostly Cloudy Mostly Cloudy Mostly Cloudy Mostly Cloudy Mostly Cloudy Mostly Cloudy Cloudy Cloudy
Cloudy Cloudy Cloudy Cloudy Partly Cloudy Partly Cloudy Partly Cloudy Mostly Clear Mostly Clear Mostly Clear Partly Cloudy Partly Cloudy Partly Cloudy Mostly Cloudy Mostly Cloudy Mostly Cloudy Partly Cloudy Partly Cloudy Partly Cloudy Mostly Cloudy Mostly Cloudy Mostly Cloudy Cloudy Cloudy Cloudy Cloudy Cloudy Cloudy Mostly Cloudy Mostly Cloudy Mostly Cloudy Mostly Cloudy Mostly Cloudy Mostly Cloudy Cloudy Cloudy
29°F-2°C 31°F-1°C 32°F0°C 33°F1°C 33°F1°C 34°F1°C 34°F1°C 33°F1°C 33°F1°C 33°F1°C 33°F1°C 33°F1°C 32°F0°C 32°F0°C 31°F-1°C 30°F-1°C 30°F-1°C 29°F-2°C 28°F-2°C 28°F-2°C 27°F-3°C 28°F-2°C 28°F-2°C 29°F-2°C 30°F-1°C 30°F-1°C 31°F-1°C 31°F-1°C 32°F0°C 32°F0°C 32°F0°C 31°F-1°C 31°F-1°C 31°F-1°C 30°F-1°C 30°F-1°C
- - - - - - - - - - - - - - - - - - - - - - - - - - - - - - - - - - - -
0% 0% 0% 0% 0% 0% 0% 0% 0% 0% 0% 0% 0% 0% 0% 0% 0% 0% 0% 0% 0% 0% 0% 0% 0% 0% 0% 0% 0% 0% 0% 0% 0% 0% 0% 0%
24°F-4°C 25°F-4°C 25°F-4°C 24°F-4°C 24°F-4°C 23°F-5°C 23°F-5°C 23°F-5°C 23°F-5°C 23°F-5°C 24°F-4°C 24°F-4°C 24°F-4°C 24°F-4°C 24°F-4°C 24°F-4°C 23°F-5°C 23°F-5°C 23°F-5°C 23°F-5°C 23°F-5°C 23°F-5°C 24°F-4°C 24°F-4°C 24°F-4°C 24°F-4°C 24°F-4°C 24°F-4°C 24°F-4°C 24°F-4°C 24°F-4°C 24°F-4°C 24°F-4°C 23°F-5°C 23°F-5°C 22°F-6°C
81% 78% 75% 69% 69% 64% 64% 66% 66% 66% 69% 69% 72% 72% 75% 78% 75% 78% 81% 81% 85% 81% 85% 81% 78% 78% 75% 75% 72% 72% 72% 75% 75% 72% 75% 72%
SSW S SE E ENE NE NNE N N ESE SW NNW WNW SSW SW SSW W NW NW NW NW W SSW SW SW SSW SSW W W NW NW WNW WNW NW NW NW
3 mph 2 mph 2 mph 2 mph 1 mph 1 mph 1 mph 0 mph 0 mph 0 mph 2 mph 2 mph 2 mph 1 mph 1 mph 1 mph 2 mph 2 mph 2 mph 3 mph 3 mph 3 mph 1 mph 1 mph 1 mph 1 mph 1 mph 1 mph 2 mph 2 mph 2 mph 1 mph 1 mph 1 mph 3 mph 3 mph
10 mi16 km 10 mi16 km 10 mi16 km 10 mi16 km 10 mi16 km 10 mi16 km 10 mi16 km 10 mi16 km 10 mi16 km 10 mi16 km 10 mi16 km 10 mi16 km 10 mi16 km 10 mi16 km 10 mi16 km 10 mi16 km 10 mi16 km 10 mi16 km 5 mi8 km 3 mi5 km .5 mi1 km .75 mi1 km 3 mi5 km 5 mi8 km 6 mi10 km 6 mi10 km 10 mi16 km 10 mi16 km 10 mi16 km 10 mi16 km 10 mi16 km 10 mi16 km 10 mi16 km 6 mi10 km 6 mi10 km 5 mi8 km
Hour (PST)
Weather
Clouds
Temperature
Precip. Type
POP
Dewpoint
Humidity
Wind Direction
Wind Speed
Visibility
POP = Probability of Precipitation. ** Indicates missing data/values from model statistics.

24 Hour Forecast

Rest of Today - Mostly sunny. Areas of dense fog. Highs in the 30s.
Tonight - Mostly clear. Patchy fog in the evening. Lows 16 to 21.

48 Hour Forecast API Feed


Mon, Jan 24
11:00 am

Mon, Jan 24
Noon

Mon, Jan 24
1:00 pm

Mon, Jan 24
2:00 pm

Mon, Jan 24
3:00 pm

Mon, Jan 24
4:00 pm

Mon, Jan 24
5:00 pm

Mon, Jan 24
6:00 pm

Mon, Jan 24
7:00 pm

Mon, Jan 24
8:00 pm

Mon, Jan 24
9:00 pm

Mon, Jan 24
10:00 pm

Mon, Jan 24
11:00 pm

Tue, Jan 25
Midnight

Tue, Jan 25
1:00 am

Tue, Jan 25
2:00 am

Tue, Jan 25
3:00 am

Tue, Jan 25
4:00 am

Tue, Jan 25
5:00 am

Tue, Jan 25
6:00 am

Tue, Jan 25
7:00 am

Tue, Jan 25
8:00 am

Tue, Jan 25
9:00 am

Tue, Jan 25
10:00 am

Tue, Jan 25
11:00 am

Tue, Jan 25
Noon

Tue, Jan 25
1:00 pm

Tue, Jan 25
2:00 pm

Tue, Jan 25
3:00 pm

Tue, Jan 25
4:00 pm

Tue, Jan 25
5:00 pm

Tue, Jan 25
6:00 pm

Tue, Jan 25
7:00 pm

Tue, Jan 25
8:00 pm

Tue, Jan 25
9:00 pm

Tue, Jan 25
10:00 pm

Tue, Jan 25
11:00 pm

Wed, Jan 26
Midnight

Wed, Jan 26
1:00 am

Wed, Jan 26
2:00 am

Wed, Jan 26
3:00 am

Wed, Jan 26
4:00 am

Wed, Jan 26
5:00 am

Wed, Jan 26
6:00 am

Wed, Jan 26
7:00 am

Wed, Jan 26
8:00 am

Wed, Jan 26
9:00 am

Wed, Jan 26
10:00 am
Partly CloudyPartly CloudySunnySunnySunnySunnyClearClearClearClearClearClearPartly CloudyPartly CloudyPartly CloudyMistPartly CloudyPartly CloudyMistMistMistFreezing FogFreezing FogMistMistCloudyCloudyCloudyCloudyCloudyCloudyMistMistMistMistMistOvercastMistMistMistMistMistPatchy Light SnowMistMistMistMistPartly Cloudy
Partly cloudy Partly cloudy Sunny Sunny Sunny Sunny Clear Clear Clear Clear Clear Clear Partly cloudy Partly cloudy Partly cloudy Mist Partly cloudy Partly cloudy Mist Mist Mist Freezing fog Freezing fog Mist Mist Cloudy Cloudy Cloudy Cloudy Cloudy Cloudy Mist Mist Mist Mist Mist Overcast Mist Mist Mist Mist Mist Patchy light snow Mist Mist Mist Mist Partly cloudy
27°F
-3°C
29°F
-2°C
32°F
0°C
35°F
2°C
36°F
2°C
35°F
2°C
32°F
-0°C
28°F
-2°C
27°F
-3°C
24°F
-4°C
23°F
-5°C
22°F
-6°C
22°F
-5°C
23°F
-5°C
25°F
-4°C
25°F
-4°C
25°F
-4°C
21°F
-6°C
24°F
-5°C
21°F
-6°C
24°F
-5°C
23°F
-5°C
24°F
-5°C
25°F
-4°C
27°F
-3°C
29°F
-2°C
30°F
-1°C
30°F
-1°C
30°F
-1°C
27°F
-3°C
24°F
-4°C
23°F
-5°C
23°F
-5°C
23°F
-5°C
23°F
-5°C
23°F
-5°C
23°F
-5°C
23°F
-5°C
23°F
-5°C
23°F
-5°C
23°F
-5°C
23°F
-5°C
20°F
-6°C
19°F
-7°C
23°F
-5°C
22°F
-5°C
22°F
-5°C
26°F
-4°C
25°F
-4°C
26°F
-3°C
29°F
-2°C
32°F
-0°C
33°F
1°C
32°F
0°C
29°F
-2°C
26°F
-4°C
24°F
-4°C
22°F
-6°C
21°F
-6°C
20°F
-7°C
21°F
-6°C
22°F
-6°C
24°F
-5°C
24°F
-5°C
23°F
-5°C
20°F
-7°C
22°F
-5°C
20°F
-7°C
23°F
-5°C
23°F
-5°C
23°F
-5°C
24°F
-4°C
26°F
-3°C
27°F
-3°C
28°F
-2°C
28°F
-2°C
28°F
-2°C
26°F
-4°C
22°F
-5°C
21°F
-6°C
22°F
-6°C
22°F
-6°C
22°F
-6°C
22°F
-6°C
22°F
-6°C
22°F
-6°C
22°F
-6°C
22°F
-6°C
22°F
-6°C
22°F
-6°C
19°F
-7°C
18°F
-8°C
22°F
-6°C
21°F
-6°C
21°F
-6°C
24°F
-5°C
30.3 in
1026 mb
30.3 in
1026 mb
30.27 in
1025 mb
30.21 in
1023 mb
30.21 in
1023 mb
30.24 in
1024 mb
30.27 in
1025 mb
30.33 in
1027 mb
30.36 in
1028 mb
30.39 in
1029 mb
30.42 in
1030 mb
30.42 in
1030 mb
30.42 in
1030 mb
30.42 in
1030 mb
30.42 in
1030 mb
30.42 in
1030 mb
30.42 in
1030 mb
30.42 in
1030 mb
30.42 in
1030 mb
30.42 in
1030 mb
30.42 in
1030 mb
30.42 in
1030 mb
30.42 in
1030 mb
30.42 in
1030 mb
30.42 in
1030 mb
30.39 in
1029 mb
30.36 in
1028 mb
30.36 in
1028 mb
30.33 in
1027 mb
30.3 in
1026 mb
30.3 in
1026 mb
30.3 in
1026 mb
30.3 in
1026 mb
30.27 in
1025 mb
30.24 in
1024 mb
30.24 in
1024 mb
30.24 in
1024 mb
30.24 in
1024 mb
30.24 in
1024 mb
30.21 in
1023 mb
30.24 in
1024 mb
30.24 in
1024 mb
30.24 in
1024 mb
30.24 in
1024 mb
30.24 in
1024 mb
30.24 in
1024 mb
30.27 in
1025 mb
30.24 in
1024 mb
94%89%87%88%91%90%90%90%90%91%91%92%93%94%94%95%95%95%96%96%97%97%97%96%95%93%92%92%92%93%94%95%96%95%96%95%93%95%95%95%95%95%95%95%95%95%95%92%
NENWSWWSWENENENEWWNWWSWWWNWWWNWWNWEWNENENENENNENEENEEEEEENEEEEEENEENENENENNENNENNEWWSWWSWSSWSWSSESSW
4 mph
6 km/h
2 mph
3 km/h
4 mph
6 km/h
4 mph
7 km/h
2 mph
4 km/h
2 mph
3 km/h
2 mph
4 km/h
2 mph
3 km/h
1 mph
2 km/h
1 mph
2 km/h
2 mph
3 km/h
2 mph
4 km/h
2 mph
3 km/h
1 mph
1 km/h
0 mph
1 km/h
1 mph
1 km/h
0 mph
0 km/h
0 mph
0 km/h
1 mph
2 km/h
1 mph
2 km/h
1 mph
2 km/h
1 mph
2 km/h
2 mph
3 km/h
2 mph
3 km/h
2 mph
4 km/h
3 mph
4 km/h
3 mph
4 km/h
3 mph
4 km/h
3 mph
5 km/h
2 mph
4 km/h
2 mph
4 km/h
2 mph
3 km/h
2 mph
3 km/h
2 mph
3 km/h
2 mph
3 km/h
3 mph
4 km/h
4 mph
6 km/h
3 mph
5 km/h
3 mph
5 km/h
2 mph
4 km/h
3 mph
5 km/h
3 mph
4 km/h
4 mph
6 km/h
3 mph
5 km/h
2 mph
4 km/h
2 mph
3 km/h
1 mph
1 km/h
3 mph
5 km/h
0%0%0%0%0%0%0%0%0%0%0%0%0%0%0%0%0%0%0%0%0%0%0%0%0%0%0%0%0%0%0%0%0%0%0%0%0%0%0%0%0%0%0%0%0%0%0%0%
6 mi
10 km
6 mi
10 km
6 mi
10 km
6 mi
10 km
6 mi
10 km
6 mi
10 km
6 mi
10 km
6 mi
10 km
6 mi
10 km
6 mi
10 km
6 mi
10 km
6 mi
10 km
6 mi
10 km
6 mi
10 km
6 mi
10 km
1 mi
2 km
6 mi
10 km
6 mi
10 km
1 mi
2 km
1 mi
2 km
1 mi
2 km
0 mi
0 km
0 mi
0 km
1 mi
2 km
1 mi
2 km
6 mi
10 km
6 mi
10 km
6 mi
10 km
6 mi
10 km
6 mi
10 km
6 mi
10 km
1 mi
2 km
1 mi
2 km
1 mi
2 km
1 mi
2 km
1 mi
2 km
6 mi
10 km
1 mi
2 km
1 mi
2 km
1 mi
2 km
1 mi
2 km
1 mi
2 km
6 mi
10 km
1 mi
2 km
1 mi
2 km
1 mi
2 km
1 mi
2 km
6 mi
10 km

Day/Time
Weather
Condition
Temperature
Dew Point
Pressure
Humidity
Wind Direction
Wind Speed
Prob Precip %
Visibility
Prob Precip % = Probability of Precipitation.